Вернуться в каталог

SL-12 R/B(2)

АктивенGEO
NORAD 17125·ROCKET BODY·🇷🇺 Russia

Запущен Nov 18, 1986 с Baikonur Cosmodrome

Loading…

TLE

СвежийSource: Space-Track

Эпоха: Sep 14, 2026, 14:16 UTC

1 17125U 86090D   26257.59510330 -.00000374  00000-0  00000+0 0  9991
2 17125  10.2084 322.1844 0008808 193.9656 165.9897  1.00209359145767

Отслеживайте SL-12 R/B(2) в реальном времени с AllMySat

Download on the App Store